Home > Weather > Cluj-Napoca > Past weeks

Flag for Romania Past Weather in Cluj-Napoca, Romania — Yesterday and Last 2 Weeks

Now
82 °F

Passing clouds.


Feels Like: 83 °F
Forecast: 60 / 87 °F
Wind: 6 mph from Northwest

Location: Cluj Airport-Napoca

Current Time: Jul 27, 2016 at 6:42:27 PM

Latest Report: Jul 27, 2016 at 6:00 PM


Visibility: N/A

Pressure: 29.98 "Hg

Humidity: 51%

Dew Point: 63 °F

Location of Cluj-NapocaLocation

Past Weather in Cluj-Napoca — Graph

°F

Cluj-Napoca Temperature Yesterday

Maximum temperature yesterday: 84 °F (at 2:30 PM)
Minimum temperature yesterday: 63 °F (at 5:00 AM)
Average temperature yesterday: 71 °F

High & Low Weather Summary for the Past Weeks

 TemperatureHumidityPressure
High91 °F (Jul 13, 6:00 PM)100% (Jul 16, 7:00 PM)30.07 "Hg (Jul 16, 7:00 PM)
Low55 °F (Jul 21, 4:00 AM)35% (Jul 25, 7:00 PM)29.71 "Hg (Jul 14, 12:00 PM)
Average70 °F70%29.98 "Hg
* Reported Jul 12 5:00 PM — Jul 27 5:30 PM, Cluj-Napoca, Weather by CustomWeather, © 2016

Note: Actual official high and low records may vary slightly from our data, if they occured in-between our weather recording intervals... More about our weather records

Advertising

Cluj-Napoca Weather History for the Previous 24 Hours

Scroll right to see more
 ConditionsComfort  
Time TempWeatherWind HumidityBarometerVisibility
5:30 PM
Wed, Jul 27
81 °FPassing clouds.7 mph54%29.98 "HgN/A
5:00 PM82 °FPassing clouds.10 mph48%29.98 "HgN/A
4:30 PM82 °FPassing clouds.6 mph51%30.01 "HgN/A
4:00 PM86 °FPassing clouds.6 mph46%30.01 "HgN/A
3:30 PM84 °FPassing clouds.5 mph43%30.01 "HgN/A
3:00 PM84 °FPassing clouds.3 mph48%30.01 "HgN/A
2:30 PM84 °FPassing clouds.5 mph48%30.01 "HgN/A
2:00 PM82 °FPassing clouds.8 mph55%30.04 "HgN/A
1:30 PM82 °FPassing clouds.6 mph51%30.04 "HgN/A
1:00 PM81 °FPassing clouds.8 mph54%30.04 "HgN/A
12:30 PM79 °FPassing clouds.8 mph58%30.04 "HgN/A
12:00 PM79 °FPassing clouds.8 mph61%30.04 "HgN/A
11:30 AM77 °FPassing clouds.7 mph69%30.04 "HgN/A
11:00 AM75 °FPassing clouds.7 mph69%30.04 "HgN/A
10:30 AM72 °FPassing clouds.6 mph78%30.07 "HgN/A
10:00 AM70 °FSunny.7 mph83%30.07 "Hg10 mi
9:30 AM68 °FPassing clouds.5 mph83%30.07 "HgN/A
9:00 AM66 °FPassing clouds.3 mph88%30.07 "HgN/A
8:30 AM66 °FClear.1 mph83%30.07 "Hg4 mi
8:00 AM64 °FClear.No wind88%30.07 "Hg4 mi
7:30 AM61 °FFog.2 mph94%30.07 "Hg3 mi
7:00 AM59 °FClear.1 mph100%30.07 "Hg4 mi
6:30 AM59 °FClear.No wind94%30.07 "Hg4 mi
6:00 AM59 °FClear.1 mph94%30.07 "Hg5 mi
5:30 AM59 °FClear.No wind100%30.07 "Hg5 mi
5:00 AM59 °FFog.1 mph100%30.07 "Hg3 mi
4:00 AM61 °FClear.3 mph94%30.07 "Hg5 mi
3:00 AM61 °FClear.3 mph94%30.07 "Hg10 mi
2:00 AM63 °FClear.No wind94%30.07 "Hg10 mi
1:00 AM63 °FClear.2 mph94%30.07 "Hg10 mi
12:00 AM64 °FClear.3 mph88%30.07 "Hg10 mi
11:30 PM
Tue, Jul 26
64 °FClear.3 mph88%30.07 "Hg10 mi
11:00 PM64 °FClear.5 mph88%30.07 "Hg10 mi
10:30 PM64 °FClear.6 mph88%30.04 "Hg10 mi
10:00 PM66 °FSunny.7 mph88%30.04 "Hg10 mi
9:30 PM68 °FSunny.1 mph83%30.04 "Hg10 mi
9:00 PM68 °FPassing clouds.3 mph83%30.04 "HgN/A
8:30 PM70 °FScattered clouds.2 mph73%30.04 "HgN/A
8:00 PM70 °FScattered clouds.7 mph78%30.07 "HgN/A
7:30 PM72 °FThundershowers. Scattered clouds.22 mph69%30.07 "HgN/A
7:00 PM77 °FThundershowers. Scattered clouds.7 mph57%30.04 "HgN/A
6:30 PM75 °FPassing clouds.6 mph65%30.04 "HgN/A
6:00 PM73 °FPassing clouds.9 mph69%30.01 "HgN/A
Weather by CustomWeather, © 2016

See weather overviewHow to use our weather pages